Time,TemperatureF,DewpointF,PressureIn,WindDirection,WindDirectionDegrees,WindSpeedMPH,WindSpeedGustMPH,Humidity,HourlyPrecipIn,Conditions,Clouds,dailyrainin,SoftwareType,DateUTC
2013-03-12 00:09:00,50.4,44.5,30.07,NNW,337,2.0,2.0,80,0.00,,,0.00,Wunderground v.1.15,2013-03-12 07:09:00,
2013-03-12 00:19:00,50.5,44.6,30.07,NNW,337,1.0,1.0,80,0.00,,,0.00,Wunderground v.1.15,2013-03-12 07:19:00,
2013-03-12 00:29:00,50.5,44.6,30.07,NNW,338,1.0,3.0,80,0.00,,,0.00,Wunderground v.1.15,2013-03-12 07:29:00,
2013-03-12 00:39:00,50.4,44.5,30.07,NNW,338,2.0,2.0,80,0.00,,,0.00,Wunderground v.1.15,2013-03-12 07:39:00,
2013-03-12 00:49:00,50.4,44.5,30.07,NNW,337,2.0,4.0,80,0.00,,,0.00,Wunderground v.1.15,2013-03-12 07:49:00,
2013-03-12 00:59:00,50.5,44.2,30.07,NNW,338,2.0,2.0,79,0.00,,,0.00,Wunderground v.1.15,2013-03-12 07:59:00,
2013-03-12 01:09:00,50.7,44.4,30.07,NNW,337,1.0,1.0,79,0.00,,,0.00,Wunderground v.1.15,2013-03-12 08:09:00,
2013-03-12 01:19:00,51.0,44.4,30.07,NNW,338,1.0,1.0,78,0.00,,,0.00,Wunderground v.1.15,2013-03-12 08:19:00,
2013-03-12 01:29:00,50.7,43.8,30.07,NNW,337,2.0,2.0,77,0.00,,,0.00,Wunderground v.1.15,2013-03-12 08:29:00,
2013-03-12 01:39:00,50.4,43.1,30.07,NNW,337,0.0,4.0,76,0.00,,,0.00,Wunderground v.1.15,2013-03-12 08:39:00,
2013-03-12 01:49:00,49.9,42.6,30.07,NNW,337,0.0,1.0,76,0.00,,,0.00,Wunderground v.1.15,2013-03-12 08:49:00,
2013-03-12 01:59:00,49.5,42.6,30.07,NNW,337,0.0,0.0,77,0.00,,,0.00,Wunderground v.1.15,2013-03-12 08:59:00,
2013-03-12 02:09:00,49.2,43.0,30.07,NNW,337,0.0,0.0,79,0.00,,,0.00,Wunderground v.1.15,2013-03-12 09:09:00,
2013-03-12 02:19:00,49.4,43.2,30.07,NNW,338,0.0,0.0,79,0.00,,,0.00,Wunderground v.1.15,2013-03-12 09:19:00,
2013-03-12 02:29:00,49.1,43.2,30.07,NNW,338,0.0,1.0,80,0.00,,,0.00,Wunderground v.1.15,2013-03-12 09:29:00,
2013-03-12 02:39:00,48.9,43.0,30.06,NNW,337,0.0,0.0,80,0.00,,,0.00,Wunderground v.1.15,2013-03-12 09:39:00,
2013-03-12 02:49:00,48.9,43.0,30.06,NNW,338,0.0,0.0,80,0.00,,,0.00,Wunderground v.1.15,2013-03-12 09:49:00,
2013-03-12 02:59:00,48.8,42.9,30.06,NNW,338,0.0,0.0,80,0.00,,,0.00,Wunderground v.1.15,2013-03-12 09:59:00,
2013-03-12 03:09:00,48.2,42.3,30.06,NNW,337,0.0,0.0,80,0.00,,,0.00,Wunderground v.1.15,2013-03-12 10:09:00,
2013-03-12 03:19:00,47.7,41.8,30.05,NNW,337,0.0,2.0,80,0.00,,,0.00,Wunderground v.1.15,2013-03-12 10:19:00,
2013-03-12 03:29:00,47.3,41.4,30.05,NNW,337,0.0,2.0,80,0.00,,,0.00,Wunderground v.1.15,2013-03-12 10:29:00,
2013-03-12 03:39:00,46.8,41.0,30.05,NNW,338,0.0,2.0,80,0.00,,,0.00,Wunderground v.1.15,2013-03-12 10:39:00,
2013-03-12 03:49:00,46.5,41.0,30.04,NNW,337,0.0,1.0,81,0.00,,,0.00,Wunderground v.1.15,2013-03-12 10:49:00,
2013-03-12 03:59:00,46.2,40.7,30.04,NNW,337,0.0,1.0,81,0.00,,,0.00,Wunderground v.1.15,2013-03-12 10:59:00,
2013-03-12 04:09:00,46.2,41.0,30.04,NNW,337,0.0,2.0,82,0.00,,,0.00,Wunderground v.1.15,2013-03-12 11:09:00,
2013-03-12 04:19:00,46.2,40.7,30.04,NNW,337,0.0,2.0,81,0.00,,,0.00,Wunderground v.1.15,2013-03-12 11:19:00,
2013-03-12 04:29:00,46.2,40.7,30.04,NNW,337,1.0,1.0,81,0.00,,,0.00,Wunderground v.1.15,2013-03-12 11:29:00,
2013-03-12 04:39:00,45.8,40.3,30.04,NNW,337,0.0,3.0,81,0.00,,,0.00,Wunderground v.1.15,2013-03-12 11:39:00,
2013-03-12 04:49:00,45.5,40.0,30.03,NNW,337,0.0,2.0,81,0.00,,,0.00,Wunderground v.1.15,2013-03-12 11:49:00,
2013-03-12 04:59:00,45.2,39.7,30.03,NNW,337,1.0,1.0,81,0.00,,,0.00,Wunderground v.1.15,2013-03-12 11:59:00,
2013-03-12 05:09:00,45.1,39.6,30.03,NNW,337,1.0,1.0,81,0.00,,,0.00,Wunderground v.1.15,2013-03-12 12:09:00,
2013-03-12 05:19:00,44.9,39.4,30.03,NNW,338,0.0,4.0,81,0.00,,,0.00,Wunderground v.1.15,2013-03-12 12:19:00,
2013-03-12 05:29:00,44.8,39.3,30.03,NNW,337,0.0,1.0,81,0.00,,,0.00,Wunderground v.1.15,2013-03-12 12:29:00,
2013-03-12 05:39:00,44.6,39.1,30.03,NNW,337,1.0,1.0,81,0.00,,,0.00,Wunderground v.1.15,2013-03-12 12:39:00,
2013-03-12 05:49:00,44.6,39.1,30.03,NNW,337,1.0,4.0,81,0.00,,,0.00,Wunderground v.1.15,2013-03-12 12:49:00,
2013-03-12 05:59:00,44.8,39.3,30.03,NNW,337,1.0,1.0,81,0.00,,,0.00,Wunderground v.1.15,2013-03-12 12:59:00,
2013-03-12 06:09:00,45.1,39.6,30.03,NNW,337,0.0,4.0,81,0.00,,,0.00,Wunderground v.1.15,2013-03-12 13:09:00,
2013-03-12 06:19:00,45.4,39.6,30.03,NNW,338,0.0,1.0,80,0.00,,,0.00,Wunderground v.1.15,2013-03-12 13:19:00,
2013-03-12 06:29:00,45.2,39.4,30.03,NNW,337,0.0,1.0,80,0.00,,,0.00,Wunderground v.1.15,2013-03-12 13:29:00,
2013-03-12 06:39:00,44.8,39.0,30.03,NNW,337,0.0,0.0,80,0.00,,,0.00,Wunderground v.1.15,2013-03-12 13:39:00,
2013-03-12 06:49:00,44.8,39.0,30.03,NNW,337,0.0,2.0,80,0.00,,,0.00,Wunderground v.1.15,2013-03-12 13:49:00,
2013-03-12 06:59:00,44.6,38.8,30.03,NNW,337,0.0,2.0,80,0.00,,,0.00,Wunderground v.1.15,2013-03-12 13:59:00,
2013-03-12 07:09:00,44.6,38.8,30.04,NNW,338,0.0,1.0,80,0.00,,,0.00,Wunderground v.1.15,2013-03-12 14:09:00,
2013-03-12 07:19:00,44.6,38.8,30.04,NNW,338,0.0,0.0,80,0.00,,,0.00,Wunderground v.1.15,2013-03-12 14:19:00,
2013-03-12 07:29:00,44.5,38.7,30.04,NNW,338,0.0,3.0,80,0.00,,,0.00,Wunderground v.1.15,2013-03-12 14:29:00,
2013-03-12 07:39:00,44.6,38.8,30.04,NNW,337,0.0,1.0,80,0.00,,,0.00,Wunderground v.1.15,2013-03-12 14:39:00,
2013-03-12 07:49:00,45.5,39.7,30.05,NNW,337,0.0,0.0,80,0.00,,,0.00,Wunderground v.1.15,2013-03-12 14:49:00,
2013-03-12 07:59:00,47.1,41.2,30.05,NNW,337,0.0,0.0,80,0.00,,,0.00,Wunderground v.1.15,2013-03-12 14:59:00,
2013-03-12 08:09:00,49.4,42.5,30.05,NNW,338,0.0,0.0,77,0.00,,,0.00,Wunderground v.1.15,2013-03-12 15:09:00,
2013-03-12 08:19:00,51.6,42.9,30.06,NNW,337,0.0,0.0,72,0.00,,,0.00,Wunderground v.1.15,2013-03-12 15:19:00,
2013-03-12 08:29:00,53.1,42.8,30.06,NNW,336,0.0,0.0,68,0.00,,,0.00,Wunderground v.1.15,2013-03-12 15:29:00,
2013-03-12 08:39:00,54.2,42.7,30.06,NNW,337,0.0,0.0,65,0.00,,,0.00,Wunderground v.1.15,2013-03-12 15:39:00,
2013-03-12 08:49:00,55.9,42.6,30.07,NNW,337,0.0,1.0,61,0.00,,,0.00,Wunderground v.1.15,2013-03-12 15:49:00,
2013-03-12 08:59:00,57.3,42.6,30.07,NNW,337,0.0,0.0,58,0.00,,,0.00,Wunderground v.1.15,2013-03-12 15:59:00,
2013-03-12 09:09:00,58.1,42.9,30.07,NNW,338,0.0,1.0,57,0.00,,,0.00,Wunderground v.1.15,2013-03-12 16:09:00,
2013-03-12 09:19:00,59.0,43.8,30.08,NW,319,0.0,1.0,57,0.00,,,0.00,Wunderground v.1.15,2013-03-12 16:19:00,
2013-03-12 09:29:00,59.5,43.8,30.08,NW,319,0.0,1.0,56,0.00,,,0.00,Wunderground v.1.15,2013-03-12 16:29:00,
2013-03-12 09:39:00,60.1,42.9,30.08,NW,319,0.0,1.0,53,0.00,,,0.00,Wunderground v.1.15,2013-03-12 16:39:00,
2013-03-12 09:49:00,61.2,43.4,30.08,NW,319,0.0,1.0,52,0.00,,,0.00,Wunderground v.1.15,2013-03-12 16:49:00,
2013-03-12 09:59:00,61.2,42.4,30.08,NW,304,1.0,2.0,50,0.00,,,0.00,Wunderground v.1.15,2013-03-12 16:59:00,
2013-03-12 10:09:00,62.3,42.3,30.08,NW,304,1.0,5.0,48,0.00,,,0.00,Wunderground v.1.15,2013-03-12 17:09:00,
2013-03-12 10:19:00,62.6,42.1,30.08,West,261,2.0,5.0,47,0.00,,,0.00,Wunderground v.1.15,2013-03-12 17:19:00,
2013-03-12 10:29:00,62.9,40.6,30.08,West,261,2.0,5.0,44,0.00,,,0.00,Wunderground v.1.15,2013-03-12 17:29:00,
2013-03-12 10:39:00,64.0,41.0,30.08,WSW,255,2.0,2.0,43,0.00,,,0.00,Wunderground v.1.15,2013-03-12 17:39:00,
2013-03-12 10:49:00,65.0,43.1,30.08,WSW,256,2.0,2.0,45,0.00,,,0.00,Wunderground v.1.15,2013-03-12 17:49:00,
2013-03-12 10:59:00,65.6,45.9,30.08,SW,234,3.0,5.0,49,0.00,,,0.00,Wunderground v.1.15,2013-03-12 17:59:00,
2013-03-12 11:09:00,65.8,47.2,30.08,SW,214,2.0,7.0,51,0.00,,,0.00,Wunderground v.1.15,2013-03-12 18:09:00,
2013-03-12 11:19:00,66.1,45.8,30.08,SSW,213,3.0,3.0,48,0.00,,,0.00,Wunderground v.1.15,2013-03-12 18:19:00,
2013-03-12 11:29:00,66.8,47.6,30.08,WSW,243,2.0,6.0,50,0.00,,,0.00,Wunderground v.1.15,2013-03-12 18:29:00,
2013-03-12 11:39:00,67.4,48.1,30.08,SW,225,4.0,7.0,50,0.00,,,0.00,Wunderground v.1.15,2013-03-12 18:39:00,
2013-03-12 11:49:00,67.4,47.6,30.08,SW,227,4.0,4.0,49,0.00,,,0.00,Wunderground v.1.15,2013-03-12 18:49:00,
2013-03-12 11:59:00,67.3,50.6,30.08,SW,229,5.0,5.0,55,0.00,,,0.00,Wunderground v.1.15,2013-03-12 18:59:00,
2013-03-12 12:09:00,66.3,51.1,30.08,SW,227,6.0,10.0,58,0.00,,,0.00,Wunderground v.1.15,2013-03-12 19:09:00,
2013-03-12 12:19:00,64.8,51.9,30.08,SW,235,8.0,8.0,63,0.00,,,0.00,Wunderground v.1.15,2013-03-12 19:19:00,
2013-03-12 12:29:00,64.0,50.7,30.08,SW,219,8.0,8.0,62,0.00,,,0.00,Wunderground v.1.15,2013-03-12 19:29:00,
2013-03-12 12:39:00,64.2,50.5,30.08,SSW,208,6.0,12.0,61,0.00,,,0.00,Wunderground v.1.15,2013-03-12 19:39:00,
2013-03-12 12:49:00,65.2,50.0,30.08,SSW,211,6.0,11.0,58,0.00,,,0.00,Wunderground v.1.15,2013-03-12 19:49:00,
2013-03-12 12:59:00,65.6,48.5,30.08,WSW,246,5.0,10.0,54,0.00,,,0.00,Wunderground v.1.15,2013-03-12 19:59:00,
2013-03-12 13:09:00,66.1,48.0,30.07,West,265,4.0,10.0,52,0.00,,,0.00,Wunderground v.1.15,2013-03-12 20:09:00,
2013-03-12 13:19:00,66.1,48.0,30.06,WSW,238,5.0,10.0,52,0.00,,,0.00,Wunderground v.1.15,2013-03-12 20:19:00,
2013-03-12 13:29:00,66.8,47.6,30.06,WSW,254,5.0,5.0,50,0.00,,,0.00,Wunderground v.1.15,2013-03-12 20:29:00,
2013-03-12 13:39:00,67.8,47.9,30.06,WSW,238,4.0,9.0,49,0.00,,,0.00,Wunderground v.1.15,2013-03-12 20:39:00,
2013-03-12 13:49:00,68.3,46.1,30.05,WNW,283,4.0,9.0,45,0.00,,,0.00,Wunderground v.1.15,2013-03-12 20:49:00,
2013-03-12 13:59:00,67.9,46.3,30.05,West,278,4.0,9.0,46,0.00,,,0.00,Wunderground v.1.15,2013-03-12 20:59:00,
2013-03-12 14:09:00,67.9,48.0,30.05,West,281,5.0,10.0,49,0.00,,,0.00,Wunderground v.1.15,2013-03-12 21:09:00,
2013-03-12 14:19:00,68.1,47.7,30.04,WNW,288,5.0,10.0,48,0.00,,,0.00,Wunderground v.1.15,2013-03-12 21:19:00,
2013-03-12 14:29:00,67.6,48.3,30.04,West,261,6.0,6.0,50,0.00,,,0.00,Wunderground v.1.15,2013-03-12 21:29:00,
2013-03-12 14:39:00,67.1,48.4,30.04,NW,304,6.0,11.0,51,0.00,,,0.00,Wunderground v.1.15,2013-03-12 21:39:00,
2013-03-12 14:49:00,66.6,47.4,30.04,WSW,246,6.0,12.0,50,0.00,,,0.00,Wunderground v.1.15,2013-03-12 21:49:00,
2013-03-12 14:59:00,66.9,47.1,30.04,West,270,6.0,11.0,49,0.00,,,0.00,Wunderground v.1.15,2013-03-12 21:59:00,
2013-03-12 15:09:00,66.4,48.7,30.03,WSW,237,6.0,10.0,53,0.00,,,0.00,Wunderground v.1.15,2013-03-12 22:09:00,
2013-03-12 15:19:00,67.1,47.8,30.03,West,274,5.0,5.0,50,0.00,,,0.00,Wunderground v.1.15,2013-03-12 22:19:00,
2013-03-12 15:29:00,66.8,47.6,30.03,WNW,285,6.0,9.0,50,0.00,,,0.00,Wunderground v.1.15,2013-03-12 22:29:00,
2013-03-12 15:39:00,66.8,49.6,30.03,West,281,5.0,11.0,54,0.00,,,0.00,Wunderground v.1.15,2013-03-12 22:39:00,
2013-03-12 15:49:00,66.1,48.5,30.03,WNW,294,5.0,5.0,53,0.00,,,0.00,Wunderground v.1.15,2013-03-12 22:49:00,
2013-03-12 15:59:00,65.6,47.5,30.03,WNW,303,5.0,11.0,52,0.00,,,0.00,Wunderground v.1.15,2013-03-12 22:59:00,
2013-03-12 16:09:00,65.2,48.1,30.03,WNW,296,5.0,10.0,54,0.00,,,0.00,Wunderground v.1.15,2013-03-12 23:09:00,
2013-03-12 16:19:00,65.3,47.7,30.03,WNW,290,5.0,10.0,53,0.00,,,0.00,Wunderground v.1.15,2013-03-12 23:19:00,
2013-03-12 16:29:00,65.3,48.7,30.03,West,269,5.0,9.0,55,0.00,,,0.00,Wunderground v.1.15,2013-03-12 23:29:00,
2013-03-12 16:39:00,65.2,48.1,30.03,SW,235,4.0,9.0,54,0.00,,,0.00,Wunderground v.1.15,2013-03-12 23:39:00,
2013-03-12 16:49:00,65.2,48.6,30.03,WSW,247,5.0,10.0,55,0.00,,,0.00,Wunderground v.1.15,2013-03-12 23:49:00,
2013-03-12 16:59:00,65.0,48.9,30.03,SW,221,5.0,10.0,56,0.00,,,0.00,Wunderground v.1.15,2013-03-12 23:59:00,
2013-03-12 17:09:00,64.8,49.7,30.03,WNW,294,3.0,9.0,58,0.00,,,0.00,Wunderground v.1.15,2013-03-13 00:09:00,
2013-03-12 17:20:00,64.7,49.1,30.03,SW,234,3.0,6.0,57,0.00,,,0.00,Wunderground v.1.15,2013-03-13 00:20:00,
2013-03-12 17:29:00,64.5,48.0,30.03,SW,229,4.0,8.0,55,0.00,,,0.00,Wunderground v.1.15,2013-03-13 00:29:00,
2013-03-12 17:39:00,64.0,47.5,30.03,West,263,4.0,7.0,55,0.00,,,0.00,Wunderground v.1.15,2013-03-13 00:39:00,
2013-03-12 17:49:00,63.9,47.4,30.03,WSW,258,4.0,4.0,55,0.00,,,0.00,Wunderground v.1.15,2013-03-13 00:49:00,
2013-03-12 17:59:00,63.7,47.2,30.03,West,267,3.0,3.0,55,0.00,,,0.00,Wunderground v.1.15,2013-03-13 00:59:00,
2013-03-12 18:09:00,63.4,48.4,30.03,West,267,2.0,6.0,58,0.00,,,0.00,Wunderground v.1.15,2013-03-13 01:09:00,
2013-03-12 18:19:00,63.1,49.0,30.03,West,263,3.0,3.0,60,0.00,,,0.00,Wunderground v.1.15,2013-03-13 01:19:00,
2013-03-12 18:29:00,62.3,49.1,30.03,West,263,2.0,7.0,62,0.00,,,0.00,Wunderground v.1.15,2013-03-13 01:29:00,
2013-03-12 18:39:00,61.3,49.4,30.03,West,263,2.0,5.0,65,0.00,,,0.00,Wunderground v.1.15,2013-03-13 01:39:00,
2013-03-12 18:49:00,60.5,50.3,30.04,West,263,2.0,2.0,69,0.00,,,0.00,Wunderground v.1.15,2013-03-13 01:49:00,
2013-03-12 18:59:00,59.6,50.2,30.04,West,263,2.0,2.0,71,0.00,,,0.00,Wunderground v.1.15,2013-03-13 01:59:00,
2013-03-12 19:09:00,58.9,49.9,30.04,West,263,1.0,1.0,72,0.00,,,0.00,Wunderground v.1.15,2013-03-13 02:09:00,
2013-03-12 19:19:00,58.0,49.8,30.05,West,263,0.0,5.0,74,0.00,,,0.00,Wunderground v.1.15,2013-03-13 02:19:00,
2013-03-12 19:29:00,57.6,49.7,30.05,West,263,2.0,4.0,75,0.00,,,0.00,Wunderground v.1.15,2013-03-13 02:29:00,
2013-03-12 19:39:00,57.5,49.6,30.05,West,263,1.0,4.0,75,0.00,,,0.00,Wunderground v.1.15,2013-03-13 02:39:00,
2013-03-12 19:49:00,57.2,48.6,30.06,West,263,1.0,3.0,73,0.00,,,0.00,Wunderground v.1.15,2013-03-13 02:49:00,
2013-03-12 19:59:00,57.0,48.1,30.06,West,263,0.0,4.0,72,0.00,,,0.00,Wunderground v.1.15,2013-03-13 02:59:00,
2013-03-12 20:09:00,57.0,48.8,30.06,West,263,2.0,3.0,74,0.00,,,0.00,Wunderground v.1.15,2013-03-13 03:09:00,
2013-03-12 20:19:00,56.9,49.1,30.06,West,263,2.0,2.0,75,0.00,,,0.00,Wunderground v.1.15,2013-03-13 03:19:00,
2013-03-12 20:29:00,56.7,49.6,30.06,West,263,1.0,1.0,77,0.00,,,0.00,Wunderground v.1.15,2013-03-13 03:29:00,
2013-03-12 20:39:00,56.7,50.3,30.07,West,263,2.0,2.0,79,0.00,,,0.00,Wunderground v.1.15,2013-03-13 03:39:00,
2013-03-12 20:49:00,56.6,50.8,30.07,West,263,2.0,2.0,81,0.00,,,0.00,Wunderground v.1.15,2013-03-13 03:49:00,
2013-03-12 20:59:00,56.3,50.9,30.07,West,263,1.0,5.0,82,0.00,,,0.00,Wunderground v.1.15,2013-03-13 03:59:00,
2013-03-12 21:09:00,56.3,50.9,30.07,West,263,1.0,1.0,82,0.00,,,0.00,Wunderground v.1.15,2013-03-13 04:09:00,
2013-03-12 21:19:00,56.2,51.1,30.07,West,263,1.0,1.0,83,0.00,,,0.00,Wunderground v.1.15,2013-03-13 04:19:00,
2013-03-12 21:29:00,56.0,50.9,30.07,West,263,1.0,3.0,83,0.00,,,0.00,Wunderground v.1.15,2013-03-13 04:29:00,
2013-03-12 21:39:00,56.0,51.2,30.08,West,263,2.0,2.0,84,0.00,,,0.00,Wunderground v.1.15,2013-03-13 04:39:00,
2013-03-12 21:49:00,55.9,51.1,30.08,West,263,1.0,1.0,84,0.00,,,0.00,Wunderground v.1.15,2013-03-13 04:49:00,
2013-03-12 21:59:00,55.6,51.2,30.08,West,263,1.0,3.0,85,0.00,,,0.00,Wunderground v.1.15,2013-03-13 04:59:00,
2013-03-12 22:09:00,55.3,50.9,30.08,West,263,2.0,2.0,85,0.00,,,0.00,Wunderground v.1.15,2013-03-13 05:09:00,
2013-03-12 22:19:00,55.0,50.6,30.08,West,264,0.0,5.0,85,0.00,,,0.00,Wunderground v.1.15,2013-03-13 05:19:00,
2013-03-12 22:29:00,54.8,50.7,30.08,West,263,1.0,1.0,86,0.00,,,0.00,Wunderground v.1.15,2013-03-13 05:29:00,
2013-03-12 22:39:00,54.4,50.3,30.08,West,263,2.0,3.0,86,0.00,,,0.00,Wunderground v.1.15,2013-03-13 05:39:00,
2013-03-12 22:49:00,53.9,50.1,30.08,West,264,2.0,2.0,87,0.00,,,0.00,Wunderground v.1.15,2013-03-13 05:49:00,
2013-03-12 22:59:00,53.6,49.8,30.08,WNW,288,2.0,5.0,87,0.00,,,0.00,Wunderground v.1.15,2013-03-13 05:59:00,
2013-03-12 23:09:00,53.5,49.7,30.08,NW,312,5.0,5.0,87,0.00,,,0.00,Wunderground v.1.15,2013-03-13 06:09:00,
2013-03-12 23:19:00,53.5,49.7,30.08,NW,311,4.0,4.0,87,0.00,,,0.00,Wunderground v.1.15,2013-03-13 06:19:00,
2013-03-12 23:29:00,53.3,49.2,30.08,NW,311,2.0,6.0,86,0.00,,,0.00,Wunderground v.1.15,2013-03-13 06:29:00,
2013-03-12 23:39:00,53.2,49.4,30.08,NW,311,1.0,5.0,87,0.00,,,0.00,Wunderground v.1.15,2013-03-13 06:39:00,
2013-03-12 23:49:00,53.3,49.2,30.08,NW,311,2.0,4.0,86,0.00,,,0.00,Wunderground v.1.15,2013-03-13 06:49:00,
2013-03-12 23:59:00,53.5,49.1,30.08,North,355,4.0,5.0,85,0.00,,,0.00,Wunderground v.1.15,2013-03-13 06:59:00,